Location: Unspecified
(33.9239°N, 118.0544°W)
Time: 06:20:43
(UTC-07:00)

Cosmos 1674 - Visible Passes

Search period start: 28 July 2015 00:00
Search period end: 07 August 2015 00:00
Orbit: 505 x 532 km, 82.5° (Epoch: 27 July)

Date Brightness Start Highest point End Pass type
(mag) Time Alt. Az. Time Alt. Az. Time Alt. Az.
28 Jul 3.1 04:39:44 10° N 04:43:36 65° E 04:47:28 10° SSE visible
29 Jul 3.5 04:25:38 10° N 04:29:26 52° E 04:33:14 10° SSE visible
30 Jul 3.9 04:11:33 10° N 04:15:15 42° E 04:18:59 10° SSE visible
31 Jul 4.3 03:57:30 10° NNE 04:01:05 35° E 04:04:17 12° SE visible
31 Jul 4.8 05:35:08 10° WNW 05:36:34 11° W 05:37:45 10° WSW visible
01 Aug 4.6 03:43:29 10° NNE 03:46:53 29° ENE 03:49:10 17° SE visible
01 Aug 4.6 05:20:18 10° NW 05:22:26 14° W 05:24:10 11° WSW visible
02 Aug 4.9 03:29:29 10° NNE 03:32:40 24° ENE 03:34:11 19° ESE visible
02 Aug 4.4 05:05:43 10° NW 05:08:19 17° W 05:09:11 15° WSW visible
03 Aug 5.0 03:15:33 10° NNE 03:18:27 20° ENE 03:19:17 19° E visible
03 Aug 4.1 04:51:14 10° NW 04:54:10 20° W 04:54:18 20° W visible
04 Aug 5.3 03:01:41 10° NE 03:04:13 17° ENE 03:04:28 17° E visible
04 Aug 4.1 04:36:49 10° NW 04:39:30 23° WNW 04:39:30 23° WNW visible
05 Aug 5.6 02:47:55 10° NE 02:49:44 14° ENE 02:49:44 14° ENE visible
05 Aug 4.1 04:22:27 10° NNW 04:24:46 25° WNW 04:24:46 25° WNW visible
06 Aug 5.9 02:34:20 10° NE 02:35:03 11° ENE 02:35:03 11° ENE visible
06 Aug 4.3 04:08:08 10° NNW 04:10:04 24° NW 04:10:04 24° NW visible
